GFSGBSN_700_spd_000.txt.gz
Wind_Speed
15 14 15 15 15 15 15 15 16 16 17 16 15 15 15 15 14 14 14 14 14 14 12 11 12 12 11 10 6 16 13 17 23 26 27 28 27 23 20 15 14 15 9 10 8 8 9
15 16 16 16 16 17 16 17 17 16 17 18 18 17 17 16 16 16 16 15 15 14 14 13 12 13 13 12 8 12 15 17 21 26 27 31 30 24 17 18 16 10 10 10 8 9 12
16 16 16 15 15 16 17 17 18 19 19 18 19 19 20 20 20 19 19 17 16 15 13 14 13 14 13 6 10 11 15 18 19 23 28 30 31 27 24 17 17 15 10 10 9 14 12
17 17 17 16 16 15 15 16 17 17 18 19 20 20 21 21 23 22 23 21 18 17 15 14 15 17 15 15 12 14 14 17 18 21 28 32 33 29 20 17 13 15 13 13 9 15 13
19 19 19 18 17 17 17 16 15 16 17 18 19 20 22 23 23 22 23 22 21 19 17 16 17 19 18 7 3 6 11 16 17 21 27 31 33 30 22 22 20 19 18 15 11 16 14
24 24 24 23 21 19 18 18 18 18 18 18 19 18 19 22 22 24 23 22 22 21 21 19 19 18 13 10 11 10 10 16 18 19 24 28 34 26 25 30 30 24 21 15 17 20 17
26 25 24 24 24 23 22 21 20 19 19 19 19 20 19 20 20 21 23 22 22 24 22 20 17 21 22 25 23 17 14 16 20 18 21 26 33 37 32 31 28 21 19 16 20 14 19
28 27 26 25 25 24 24 23 23 22 21 20 20 18 19 21 20 20 20 20 23 24 27 23 22 24 20 23 27 25 23 18 23 24 22 24 37 32 30 29 29 24 23 22 19 16 17
31 31 29 28 28 26 26 26 26 25 25 23 22 19 19 20 21 21 19 19 20 21 24 22 18 17 15 15 10 14 30 25 24 27 29 31 29 29 29 31 31 31 27 24 23 16 16
34 34 34 34 32 30 29 29 28 28 28 26 25 21 19 20 21 20 18 17 17 16 14 14 12 13 14 11 11 10 22 27 25 30 29 28 31 31 30 32 32 33 29 24 23 20 21
37 35 35 36 35 34 33 32 31 30 29 29 27 25 20 20 20 20 18 17 13 10 6 7 12 15 11 10 10 11 16 27 27 23 32 33 34 32 34 36 33 36 27 27 25 23 25
40 38 38 38 37 36 34 33 32 31 31 29 28 27 21 22 21 20 17 15 12 6 10 8 14 15 9 6 6 11 16 26 23 24 28 31 26 31 31 32 32 29 26 23 25 25 28
47 43 41 39 39 38 35 33 32 31 30 30 29 27 25 21 21 19 17 15 8 17 6 12 14 17 13 10 8 10 18 29 28 30 32 27 33 27 28 31 32 31 27 20 20 20 16
48 42 41 37 35 35 34 33 32 31 30 29 28 26 25 22 23 21 21 19 20 9 24 10 12 16 17 14 11 13 16 26 31 27 26 30 31 38 25 41 39 40 39 31 23 15 17
46 43 37 35 34 34 34 33 33 32 32 30 28 27 25 23 23 24 25 31 21 23 18 21 19 18 19 18 14 14 21 24 29 33 32 30 37 27 38 29 41 40 45 41 36 29 25
41 40 37 35 34 33 33 34 34 34 33 32 30 29 27 24 25 26 32 45 26 22 16 20 23 17 18 22 19 19 21 20 26 30 29 25 22 33 25 30 35 44 41 40 43 26 23
34 34 34 32 32 32 31 32 31 31 29 29 28 26 26 21 24 32 37 37 31 31 23 23 25 27 20 22 19 18 15 19 20 24 27 29 21 20 31 42 42 38 42 43 41 42 19
36 35 35 35 34 34 33 35 33 31 27 25 24 21 19 19 24 24 33 28 33 27 30 32 28 29 29 23 21 21 19 14 17 22 28 28 25 27 25 38 37 40 42 40 38 38 41
39 39 40 41 41 41 40 38 36 34 31 27 26 25 23 23 23 25 25 25 27 27 29 28 37 31 26 26 28 28 25 20 14 16 21 28 32 23 25 27 29 43 48 43 43 38 42
38 38 37 37 38 37 36 33 32 31 27 22 20 14 13 14 18 20 21 24 24 21 27 30 29 28 30 32 28 16 21 21 17 19 18 20 28 34 27 33 36 34 43 49 49 48 43
35 35 35 33 32 32 30 29 24 25 25 21 16 16 22 12 12 16 16 17 15 18 22 22 32 28 29 31 29 29 23 19 15 18 18 15 23 24 29 28 26 34 39 40 50 53 50
35 34 33 32 29 26 23 18 20 20 19 20 17 14 20 30 28 27 22 18 15 16 18 18 22 26 31 31 30 26 28 26 24 22 22 18 17 18 26 30 33 34 37 39 39 41 52
34 32 28 24 22 22 21 18 21 20 20 21 20 22 21 20 24 23 18 18 14 11 16 19 16 14 12 19 23 23 22 21 19 24 22 22 22 16 23 20 25 35 39 38 44 39 37
29 27 23 22 22 20 18 15 17 20 22 21 20 21 21 21 15 15 19 17 18 19 23 17 17 18 15 23 22 24 24 26 25 26 21 16 21 20 22 7 14 26 29 35 37 44 36
27 25 23 22 24 22 20 16 17 21 21 21 16 20 22 24 17 18 18 16 18 20 25 27 24 19 22 22 19 20 22 24 30 31 28 25 22 20 21 23 18 16 11 26 33 38 40
24 23 21 20 22 20 15 16 16 17 20 19 19 19 20 26 18 12 17 18 14 16 17 21 29 26 21 17 17 22 28 25 28 26 28 26 27 25 15 19 18 11 13 22 28 29 37
22 22 21 19 21 19 18 16 16 17 17 18 18 16 17 24 22 21 21 12 11 9 10 13 26 21 18 15 20 23 28 25 23 30 29 29 29 32 23 17 18 19 19 21 11 19 32
21 22 20 19 18 15 16 14 14 15 17 21 18 16 17 24 27 24 21 22 20 17 9 13 7 14 17 17 20 21 20 25 27 27 29 31 30 25 19 17 19 19 14 14 15 21 20
20 19 17 16 15 15 15 14 14 14 15 15 14 14 16 22 22 15 13 19 23 18 19 14 8 10 12 11 8 13 15 12 24 24 18 26 31 24 23 24 23 21 17 18 8 6 13

GFSGBSN_700_spd_003.txt.gz
Wind_Speed
12 12 12 12 12 13 13 13 14 15 17 18 19 18 18 17 18 17 16 14 13 12 11 10 11 12 8 9 9 21 12 12 18 23 27 27 25 22 22 15 13 13 8 5 5 5 8
13 13 14 14 14 13 13 14 14 13 14 15 17 19 21 21 21 20 18 17 16 15 14 11 11 11 11 11 10 14 13 13 16 21 24 28 27 23 19 18 16 12 12 10 7 9 11
14 14 14 14 14 15 16 15 16 16 16 16 15 16 18 21 23 24 23 21 19 18 16 14 13 14 13 8 9 13 12 12 14 19 24 27 26 21 23 18 17 17 13 11 9 10 13
16 17 17 16 16 16 16 17 18 19 19 18 18 18 18 18 20 22 25 25 23 20 17 17 17 18 17 13 14 16 14 13 16 19 23 18 27 23 23 20 18 21 17 18 14 14 14
21 22 21 20 19 18 18 18 17 17 18 19 19 19 19 20 19 18 21 23 24 23 20 19 19 21 19 17 9 7 11 11 14 18 23 23 24 29 20 23 21 21 23 20 14 17 15
23 23 23 23 22 21 20 20 20 20 20 20 19 19 20 21 20 20 18 19 20 22 23 22 22 20 17 12 10 9 7 12 15 16 20 26 23 28 30 30 29 26 25 25 21 20 19
27 26 24 23 23 22 21 21 20 20 20 21 21 19 20 22 20 20 19 18 17 17 24 22 12 15 3 7 15 13 11 13 16 18 21 24 29 39 36 32 29 25 24 20 19 20 23
29 27 26 25 23 23 22 23 22 21 22 22 23 21 20 22 22 21 19 17 20 21 28 24 24 30 27 20 21 19 15 17 22 24 22 22 37 35 32 32 30 29 27 23 17 21 25
35 33 31 30 29 27 25 24 25 24 24 23 24 24 22 22 23 22 19 19 18 20 27 23 22 24 24 27 29 24 26 25 24 27 28 34 32 33 34 34 34 33 30 25 22 23 24
41 37 35 36 36 35 32 29 27 26 25 25 25 25 23 21 23 21 23 17 14 14 15 21 17 21 21 18 23 21 22 31 28 28 29 31 28 32 39 39 36 34 30 27 25 22 21
47 44 41 39 38 36 35 34 32 30 28 27 26 26 22 23 23 21 22 16 11 7 7 4 12 11 17 21 7 16 18 29 31 27 28 35 34 34 40 43 39 36 30 29 28 26 26
49 44 43 42 40 36 32 32 33 33 32 29 28 28 25 25 22 22 21 15 10 7 16 12 15 16 20 23 16 14 17 27 24 26 27 30 29 35 34 38 36 33 30 31 32 32 27
44 44 42 39 37 34 31 30 29 29 29 28 28 28 27 23 21 20 17 15 10 19 10 17 19 20 23 19 20 18 20 30 33 32 32 28 36 31 34 35 38 37 35 28 26 25 21
40 39 39 35 32 31 31 31 30 29 28 28 27 27 25 22 23 20 20 19 23 15 30 7 18 22 28 24 22 20 19 28 32 29 25 32 30 39 35 40 39 44 43 35 23 18 19
35 34 34 34 33 32 31 31 32 31 31 31 28 28 25 24 23 24 24 34 32 29 18 24 19 24 29 29 26 25 27 28 31 35 34 28 34 23 40 37 38 42 49 42 39 33 31
38 36 35 34 33 32 31 31 32 31 30 32 29 28 26 26 24 28 32 50 28 30 15 22 33 26 29 30 30 28 27 26 30 32 34 29 24 29 31 34 35 48 43 44 46 27 25
40 40 40 39 37 37 35 34 34 34 30 30 26 22 22 24 21 32 41 40 36 35 27 33 28 32 35 31 35 36 30 31 26 32 32 34 28 24 30 45 47 39 51 42 45 45 21
40 40 40 39 39 38 38 37 36 35 31 27 25 16 17 18 21 26 37 36 32 34 29 34 33 32 34 32 31 27 28 29 24 27 35 34 30 29 30 37 34 42 43 50 40 40 41
40 40 39 37 36 35 33 33 33 31 29 26 25 24 22 20 28 29 30 34 34 35 36 37 37 40 32 34 34 32 30 26 23 25 30 31 35 28 29 28 35 43 47 48 55 41 42
38 37 36 35 33 32 30 28 26 24 23 20 20 15 12 19 21 26 31 33 32 31 34 33 37 32 37 39 37 34 35 30 29 23 29 27 32 40 29 34 32 35 43 46 48 49 41
38 37 36 32 29 28 24 19 19 20 20 18 12 12 14 16 18 15 17 23 29 26 27 27 28 35 35 37 40 38 33 29 35 31 31 28 33 34 35 30 24 31 38 42 49 48 49
39 37 34 30 25 22 20 17 18 20 20 18 19 13 17 24 24 26 22 22 19 26 22 24 22 24 33 34 34 35 36 33 30 32 32 32 30 29 30 30 31 30 30 40 40 48 51
37 33 28 25 23 22 20 20 17 20 21 22 21 20 19 19 19 21 22 29 25 23 26 22 19 19 13 21 29 27 25 30 34 30 32 32 31 28 31 29 25 33 38 35 36 41 43
33 31 27 24 23 24 22 20 18 19 22 21 21 20 26 19 18 19 21 19 22 19 19 22 20 15 17 16 20 22 23 19 24 28 32 32 34 30 32 24 22 32 31 36 38 38 39
29 26 22 21 22 21 22 18 18 19 21 21 21 24 24 22 17 18 19 19 17 21 26 23 28 34 30 24 14 13 18 18 25 24 26 26 29 35 32 32 19 21 11 14 12 23 36
29 25 21 20 20 18 18 18 17 20 21 19 19 23 21 24 20 21 13 16 16 16 17 21 19 28 27 22 15 17 24 23 32 32 33 30 27 27 27 32 25 30 10 18 17 23 24
29 24 20 20 20 18 17 17 16 18 19 18 18 22 23 25 20 17 18 20 12 18 12 9 21 24 26 19 24 27 31 32 36 41 33 41 39 40 35 29 28 16 17 18 13 22 19
24 21 20 20 17 15 13 14 15 15 15 15 15 19 20 30 23 21 24 26 19 14 19 10 4 14 19 21 26 30 29 38 37 36 41 41 42 41 36 35 30 17 7 14 18 18 18
22 21 18 14 15 12 12 14 14 13 15 14 14 14 16 18 25 23 25 22 18 22 22 16 5 6 10 14 17 21 17 20 38 32 37 44 43 39 34 37 24 18 18 18 25 16 18

GFSGBSN_700_spd_006.txt.gz
Wind_Speed
16 16 16 15 15 15 15 15 15 15 15 16 16 17 18 20 20 19 17 17 18 16 15 14 14 14 14 14 10 18 16 10 16 23 28 31 25 22 22 16 14 15 19 10 6 3 7
17 17 18 19 18 18 17 17 17 17 17 17 16 17 18 19 21 21 21 19 18 18 18 16 17 16 17 15 7 15 16 10 14 20 24 29 26 23 20 19 20 15 13 13 9 9 9
19 20 19 19 19 18 18 18 18 18 18 19 18 17 17 18 19 21 22 22 21 20 20 20 19 20 21 9 7 13 10 8 11 16 22 26 25 21 22 21 19 19 19 13 15 11 11
20 19 20 20 20 20 19 18 19 19 19 19 20 20 20 20 18 18 20 21 21 21 22 22 22 24 27 12 13 18 15 13 14 14 18 18 22 24 22 20 21 22 20 21 19 16 14
24 23 22 22 21 20 20 21 20 20 20 19 19 19 20 22 21 19 18 19 19 20 21 22 23 26 26 17 18 15 19 16 15 17 18 18 18 24 23 22 25 24 26 24 20 15 17
31 30 28 26 25 24 22 22 22 23 24 23 19 19 20 21 20 20 19 18 18 20 21 22 25 24 14 14 10 12 11 17 15 16 17 21 22 26 30 29 28 27 25 25 23 22 22
36 33 32 31 30 29 27 27 25 24 24 26 24 21 21 22 22 22 18 17 17 17 23 21 7 15 3 4 13 14 12 15 16 19 23 24 28 35 34 33 26 24 23 24 19 14 22
41 41 38 35 33 32 31 29 29 28 26 26 27 24 22 23 24 22 21 18 19 20 32 26 22 32 25 13 14 20 15 19 22 25 23 23 36 31 30 32 31 29 30 30 20 19 23
45 43 42 41 36 34 36 35 33 32 30 28 27 26 24 22 24 23 21 21 20 22 30 30 23 26 26 30 28 25 21 22 23 26 27 31 28 28 32 34 35 32 32 29 24 20 25
44 43 43 42 40 37 35 34 35 35 34 32 29 29 25 21 23 20 18 18 14 17 19 34 19 22 26 29 36 31 30 29 26 28 28 31 28 29 36 39 37 38 30 30 27 19 22
42 41 40 38 37 37 37 34 32 29 31 33 33 31 27 27 22 21 25 19 11 7 7 4 16 10 17 34 10 28 35 34 36 32 27 33 32 33 37 43 39 39 30 31 30 29 27
37 34 33 33 33 34 34 33 32 31 29 28 30 32 30 30 24 20 20 17 9 6 12 11 17 15 21 29 21 12 29 30 29 32 31 30 28 34 36 31 38 34 32 30 31 33 27
36 35 34 35 34 33 35 36 35 33 32 30 27 27 29 27 21 25 18 17 9 19 8 17 21 16 25 26 31 21 24 31 35 38 37 34 33 32 32 36 33 39 36 29 24 24 18
37 37 37 37 37 36 34 35 35 36 34 32 30 30 27 26 22 20 17 19 23 16 31 9 17 22 26 27 30 31 27 31 34 32 30 34 33 34 33 40 37 40 43 32 21 18 22
38 39 39 39 39 38 38 38 37 36 36 36 31 29 25 25 25 24 26 32 26 32 17 18 24 22 30 30 31 31 37 32 35 39 37 31 35 24 37 33 37 41 47 44 40 35 29
40 41 41 42 42 42 41 41 41 40 37 38 35 33 20 20 18 25 32 53 28 28 22 22 27 28 35 35 36 37 37 34 32 35 36 35 29 28 29 35 39 45 41 41 47 25 25
42 43 43 44 44 44 43 41 41 40 36 35 33 30 17 8 17 25 42 43 38 36 31 32 32 32 37 36 39 41 41 35 33 33 33 34 36 29 31 41 43 37 42 44 40 43 17
43 44 44 44 43 41 39 37 36 37 34 30 29 20 1 11 22 26 37 37 36 38 34 35 35 37 37 35 40 38 42 41 34 29 36 36 32 38 37 35 35 43 46 46 38 32 41
44 45 44 42 40 38 35 33 32 31 29 27 27 27 18 23 31 31 32 36 35 37 38 40 37 37 38 41 40 39 39 40 38 37 38 34 41 31 37 36 36 45 45 39 43 44 35
45 45 43 41 37 33 29 27 25 24 23 22 21 13 12 17 26 29 32 37 37 33 36 35 39 40 39 42 44 41 35 32 32 32 33 34 35 47 31 37 33 39 46 42 44 39 42
40 40 39 36 32 28 26 22 19 20 21 19 16 14 13 19 22 17 23 20 28 27 29 24 27 30 24 35 40 42 38 34 32 37 32 31 29 35 44 39 34 35 40 43 42 48 40
37 38 35 33 30 26 25 20 19 19 20 21 22 16 16 19 24 29 25 25 24 24 25 25 24 26 23 20 17 29 26 42 40 39 30 39 33 28 35 36 37 35 37 40 41 45 47
34 34 31 29 26 23 23 23 21 20 18 19 20 20 23 24 15 19 26 24 24 19 30 20 23 22 25 22 29 26 25 29 31 38 40 35 39 33 35 35 33 37 39 33 36 35 40
33 31 29 27 24 22 22 21 20 20 20 21 19 21 22 25 17 21 21 24 28 20 22 26 18 23 30 28 32 31 23 25 27 39 35 40 40 37 35 32 25 37 32 34 32 27 31
30 29 27 26 22 21 20 19 17 18 20 20 18 21 23 29 21 19 18 23 27 24 16 25 21 19 20 24 28 20 23 24 27 29 27 31 41 34 31 33 25 29 28 24 22 26 26
27 25 24 21 20 20 20 20 17 17 19 20 18 20 24 27 24 16 20 20 21 23 19 16 16 17 27 13 19 6 7 16 27 27 22 22 23 30 29 24 24 35 18 19 15 16 13
25 24 23 22 21 18 17 15 14 13 16 16 15 17 22 27 23 21 25 22 20 19 19 19 12 15 25 18 17 16 16 21 19 28 21 22 19 23 27 29 26 13 22 20 17 13 14
24 22 21 19 16 14 13 12 13 13 14 16 14 15 19 24 25 23 23 25 25 22 26 18 14 17 14 20 20 17 16 15 17 23 23 22 20 22 25 21 19 11 9 19 16 20 18
21 20 21 18 15 13 13 13 13 13 11 14 13 15 16 24 24 21 24 25 22 22 23 21 17 14 7 12 17 11 22 13 18 24 31 26 29 28 25 30 27 9 17 13 19 7 9

GFSGBSN_700_spd_009.txt.gz
Wind_Speed
20 19 19 19 18 18 18 18 18 17 16 16 16 17 17 18 20 21 21 20 19 19 18 19 18 19 20 20 7 17 13 6 13 22 29 36 33 27 19 16 15 17 18 11 11 14 13
20 20 21 22 21 21 20 20 19 20 19 18 17 18 18 18 18 19 21 22 22 21 21 21 21 21 22 18 11 12 12 6 12 20 25 31 36 28 19 18 20 15 18 22 9 21 12
24 24 23 23 23 23 23 22 22 21 21 22 20 19 19 19 19 19 19 20 21 23 24 24 24 26 29 1 9 14 9 3 11 16 23 26 31 23 19 20 20 21 24 19 21 11 13
30 29 27 26 26 25 25 23 22 22 21 21 21 21 22 22 21 19 18 20 19 21 23 26 27 29 26 7 15 22 12 6 10 10 18 23 27 25 23 21 21 23 21 25 16 18 17
32 32 31 30 30 29 28 28 26 24 23 22 21 20 21 22 22 22 20 20 18 20 21 23 27 30 20 14 21 14 18 16 11 12 11 17 16 26 26 23 23 24 27 23 19 19 15
36 35 34 32 32 32 32 32 31 31 29 27 25 23 22 22 22 21 21 21 21 22 21 21 26 24 15 7 9 15 16 14 20 12 19 21 21 25 25 28 29 24 24 26 26 19 25
38 37 36 36 35 36 36 34 33 34 33 32 30 27 25 25 24 23 18 21 23 22 27 24 20 21 15 1 7 7 12 18 21 18 22 22 26 37 33 32 28 25 27 30 23 25 24
39 39 40 39 39 38 38 38 37 35 35 36 35 33 27 23 25 24 22 21 22 27 34 28 24 31 16 16 19 18 14 19 20 24 24 23 36 33 27 28 31 31 33 34 31 23 27
40 38 38 38 38 37 36 35 35 35 34 34 36 37 32 25 26 23 22 22 21 25 36 34 26 27 19 27 24 22 29 24 25 27 29 33 19 30 30 28 33 36 37 35 28 18 23
35 33 33 32 32 32 32 32 32 32 31 29 29 33 35 29 26 24 24 25 18 19 22 38 28 26 30 35 38 33 31 27 29 29 29 31 28 28 28 35 35 40 36 32 31 30 22
33 32 32 31 32 31 32 32 32 32 32 31 28 27 27 35 24 23 25 21 14 14 6 8 8 10 14 41 19 38 39 33 34 31 30 39 31 29 36 35 36 42 33 34 33 32 22
32 33 34 34 35 35 35 33 33 33 32 31 30 26 25 26 26 27 24 21 17 7 10 7 16 16 16 24 33 10 24 41 36 34 32 35 29 32 34 30 34 33 36 37 38 37 21
38 39 39 39 39 39 39 39 38 37 35 33 31 28 25 21 16 24 18 18 12 13 5 11 17 19 18 21 24 24 28 42 48 40 45 40 39 35 32 32 32 35 37 28 20 18 9
42 42 43 44 44 44 44 43 43 42 41 40 37 35 26 22 17 21 20 20 20 12 27 9 5 15 25 24 28 32 30 44 47 41 26 36 34 39 33 42 39 39 42 31 13 13 12
43 43 44 45 46 47 47 47 47 46 45 46 43 38 32 21 16 22 26 32 17 22 9 13 28 23 26 25 29 29 38 37 42 47 41 32 36 25 37 34 38 40 49 44 32 28 19
43 44 44 44 44 45 46 47 47 47 44 44 47 42 29 20 14 21 32 50 31 26 18 16 21 11 14 15 26 37 38 44 36 39 38 38 27 33 27 33 37 44 38 38 45 17 18
44 44 44 45 45 45 45 45 45 45 41 38 39 40 24 11 11 30 45 37 39 35 29 30 27 38 38 40 35 32 44 45 42 39 39 41 41 37 28 40 42 42 44 44 31 42 13
44 43 42 42 43 44 43 42 40 40 39 34 33 31 6 19 22 30 37 36 29 31 32 39 34 36 40 40 43 43 42 28 33 43 43 44 41 40 49 37 37 38 40 43 34 26 31
41 39 39 40 41 40 39 36 33 33 32 30 29 30 10 24 26 27 27 34 33 33 33 32 38 36 38 44 47 45 44 42 32 23 46 43 48 32 36 42 43 44 45 43 47 33 37
40 40 39 37 36 36 32 29 26 26 23 24 20 18 11 12 10 22 28 34 31 30 28 26 27 30 32 35 37 49 46 41 39 31 27 23 42 55 33 37 38 35 47 44 43 44 42
40 39 36 36 36 33 30 26 23 25 21 21 18 18 12 19 18 16 16 22 22 27 29 23 30 26 25 29 30 29 28 36 41 37 31 25 37 52 43 46 31 47 30 48 50 48 41
39 37 34 32 30 29 26 24 20 23 21 21 19 18 20 25 23 23 15 18 18 23 23 26 21 22 18 28 21 30 25 18 26 35 23 26 27 41 37 37 43 44 37 37 49 49 49
36 34 31 30 28 27 24 22 20 21 20 20 18 17 20 23 23 20 13 22 15 23 24 14 15 22 22 20 27 35 26 31 33 29 23 25 16 22 31 32 27 31 55 42 31 47 48
34 32 30 27 28 26 22 20 19 18 18 19 18 19 21 27 23 21 23 21 20 23 22 23 16 14 22 27 31 38 41 35 35 33 19 28 23 25 25 23 9 32 32 36 36 24 37
33 30 28 26 26 24 20 18 17 18 17 18 17 17 20 27 26 20 18 20 23 23 20 27 19 12 19 20 19 21 38 37 39 35 30 21 22 18 21 26 18 29 23 24 26 33 25
30 27 24 24 25 22 18 16 15 14 15 17 14 17 19 27 27 22 24 18 20 27 26 15 19 17 20 11 16 4 7 14 18 20 26 28 20 24 22 14 15 33 24 23 20 18 20
29 24 23 24 22 19 16 15 13 13 14 16 11 15 20 25 21 20 17 18 18 22 24 24 20 17 13 16 12 9 11 15 14 13 11 9 15 14 16 21 18 6 33 28 15 10 12
27 25 23 22 20 19 16 14 13 13 15 16 13 16 19 23 21 21 18 19 22 23 21 22 20 13 14 11 14 9 7 12 14 30 16 10 9 17 10 8 6 13 17 23 17 11 17
27 22 22 20 20 19 17 15 14 14 14 16 15 16 18 21 23 18 19 21 19 19 18 23 20 22 11 8 11 11 10 8 19 13 22 11 20 24 10 5 12 3 12 19 28 23 13

GFSGBSN_700_spd_012.txt.gz
Wind_Speed
21 21 22 22 22 22 21 21 21 21 21 20 20 19 18 18 18 19 20 23 24 24 23 23 22 22 21 18 2 10 7 5 13 22 29 37 35 31 28 22 16 19 13 15 21 9 18
23 22 22 22 22 22 23 23 22 21 21 21 20 21 21 20 19 18 18 19 20 23 26 27 26 26 26 12 10 11 10 12 15 23 27 34 38 33 29 26 23 15 14 17 14 20 19
24 24 24 24 24 23 23 24 24 24 23 23 22 22 22 22 21 20 20 20 19 19 22 26 29 30 28 5 10 12 13 13 17 19 26 32 33 31 32 29 26 21 22 20 15 14 18
27 27 27 26 26 26 26 27 26 26 25 25 25 23 23 24 23 22 21 21 21 22 21 21 25 31 18 7 20 24 11 12 15 18 17 24 28 29 29 30 28 21 19 22 17 9 29
31 30 29 29 29 28 28 29 30 30 29 29 28 26 24 25 26 24 22 24 23 23 24 23 24 25 19 17 19 16 14 11 14 17 16 20 23 29 28 27 29 24 24 17 17 11 19
33 31 30 30 30 30 30 30 31 31 31 30 29 29 28 28 28 27 23 25 26 26 26 25 26 22 17 13 11 11 16 14 14 18 19 19 19 32 33 27 30 28 23 21 20 14 7
35 32 31 31 31 31 31 31 31 32 31 31 31 30 28 28 30 30 25 25 27 28 32 28 25 22 12 11 13 12 18 18 17 16 26 24 26 35 36 34 32 29 25 24 25 20 19
31 30 29 29 29 30 30 31 31 31 32 33 33 32 30 28 28 28 29 28 30 33 37 28 26 29 19 20 22 18 13 26 29 30 25 25 38 33 28 30 31 32 30 31 29 21 22
27 27 27 27 27 28 28 28 28 29 29 30 32 33 29 25 26 28 28 26 28 31 37 36 26 32 25 30 27 25 28 22 26 31 31 34 18 33 30 29 27 32 36 38 32 20 22
29 30 30 31 31 31 32 32 32 31 30 29 29 31 31 23 20 25 24 24 24 26 25 37 18 20 24 34 38 26 32 32 27 28 28 30 29 18 33 36 29 35 44 39 34 29 26
33 34 35 36 37 37 38 38 38 37 36 35 32 30 27 29 16 22 22 21 21 19 6 11 4 10 10 33 26 35 33 36 35 31 29 29 29 33 33 34 36 43 34 37 36 34 33
38 39 41 42 43 43 43 43 43 42 41 40 37 35 32 26 25 19 20 22 18 9 9 6 9 12 16 18 38 16 40 39 37 31 33 34 26 21 32 28 27 32 30 31 33 36 21
41 42 44 45 45 46 47 47 47 46 45 44 41 38 35 29 21 25 16 18 12 12 7 7 9 14 19 14 35 19 41 47 43 38 41 34 37 33 28 30 30 32 33 21 14 16 11
43 45 45 45 45 45 45 45 46 46 45 46 43 41 32 27 26 24 19 19 19 7 25 17 17 11 19 18 18 36 28 51 47 37 19 37 28 42 36 43 36 37 40 28 10 5 8
45 45 43 43 44 43 42 43 45 45 45 48 44 38 30 26 25 26 23 31 16 22 10 19 29 15 16 20 16 27 40 43 44 53 37 18 35 38 36 39 37 41 40 34 40 33 13
44 43 43 42 41 41 42 43 44 45 43 44 44 40 20 20 24 24 28 40 25 23 17 12 11 3 4 7 9 7 21 25 43 36 46 46 23 22 28 36 39 39 34 31 29 14 18
43 43 42 41 41 41 40 40 41 42 39 36 35 35 7 19 29 26 37 38 40 30 27 16 16 22 24 28 22 26 15 19 12 33 36 43 44 41 27 38 39 44 46 37 37 32 11
44 43 41 40 40 38 36 36 37 36 35 31 27 26 7 21 24 18 25 34 28 27 32 33 28 27 27 33 36 32 25 24 8 15 18 45 40 43 44 40 34 35 46 44 32 25 36
42 40 40 40 39 36 35 33 33 33 32 30 28 22 4 7 8 20 20 14 14 20 23 24 21 21 24 24 20 15 17 20 26 29 11 9 41 36 38 45 48 45 36 53 53 40 42
40 40 39 38 36 33 32 29 29 29 27 26 25 21 19 8 3 8 14 19 21 17 19 22 24 25 27 27 24 20 26 18 17 17 23 26 34 32 34 46 42 34 49 38 51 44 38
40 40 38 36 35 31 28 25 25 24 22 22 20 19 17 21 17 22 22 11 13 9 7 13 20 20 19 24 29 33 34 34 31 29 19 19 24 29 39 37 47 46 40 48 45 54 51
39 38 36 33 31 27 26 23 19 20 20 20 19 17 19 20 20 18 15 12 13 8 12 10 10 20 22 19 16 25 29 32 30 20 14 14 16 16 27 30 46 51 45 47 44 40 56
39 38 37 34 30 27 26 23 18 18 19 18 15 14 18 24 21 22 13 8 14 14 1 7 11 15 12 21 23 23 24 29 33 28 13 16 12 23 12 19 36 41 61 49 45 46 42
36 35 35 30 27 27 26 22 17 16 18 18 13 15 19 25 23 22 18 14 14 15 17 20 17 18 20 17 22 26 33 32 31 31 19 21 17 18 17 14 17 32 43 48 40 31 29
35 33 31 28 27 25 22 19 15 14 16 15 14 15 18 24 24 21 17 15 14 13 18 20 18 21 21 19 20 21 27 37 33 30 32 23 19 15 8 12 11 31 20 41 37 40 39
34 32 28 26 24 22 21 18 16 15 14 13 11 15 18 23 25 22 20 14 16 16 17 15 13 16 22 19 19 11 8 12 13 12 24 10 26 26 19 5 5 14 20 27 20 20 25
32 31 27 26 24 23 22 19 17 16 16 15 11 16 17 24 24 17 19 20 17 16 21 20 16 13 14 16 22 22 17 13 11 13 27 17 10 26 22 12 10 8 19 26 20 16 19
31 31 29 28 26 24 23 22 19 17 17 15 13 14 17 26 27 11 11 16 15 14 20 16 19 9 10 10 18 15 13 11 13 11 18 22 11 16 23 13 6 2 18 27 21 16 21
31 30 29 28 27 25 22 19 17 16 16 17 14 15 17 22 23 24 20 15 17 13 17 18 20 22 10 10 12 5 13 11 14 7 15 21 20 20 16 8 10 6 9 21 21 26 24

GFSGBSN_700_spd_015.txt.gz
Wind_Speed
20 20 20 21 21 22 23 23 23 23 23 23 22 22 22 22 21 20 19 19 20 21 23 25 25 26 23 19 3 13 12 8 13 26 32 39 35 29 28 22 21 23 14 15 11 9 22
21 21 21 21 21 21 21 22 22 23 24 24 24 24 23 23 22 22 22 21 20 21 21 23 25 27 27 16 12 17 12 14 10 20 28 33 34 31 28 28 26 24 18 17 18 16 21
26 26 25 23 22 23 23 23 23 24 24 24 24 24 25 25 24 22 22 23 23 21 22 23 24 25 24 6 11 13 16 16 19 18 27 32 30 32 33 31 29 27 27 24 19 10 18
29 28 27 26 25 25 25 25 25 26 26 26 26 25 26 26 26 25 23 24 25 24 23 22 23 25 18 9 18 22 18 17 18 23 26 28 28 34 35 34 29 29 28 26 15 13 12
30 29 28 27 27 26 25 25 26 27 27 27 27 28 28 27 28 27 26 27 27 26 25 24 25 24 20 14 18 21 22 17 16 21 25 25 27 33 36 33 31 32 29 25 21 11 15
29 28 26 26 25 25 25 24 25 26 27 27 26 25 27 29 29 28 29 28 29 28 28 27 27 23 17 14 15 19 18 21 22 24 23 25 26 33 38 38 33 30 29 28 25 5 7
24 24 24 24 25 25 25 24 24 24 25 26 26 25 24 25 27 28 29 30 30 32 33 27 28 26 10 13 18 18 21 26 24 30 31 28 29 41 41 38 37 33 23 29 29 17 9
23 24 25 26 28 29 29 29 29 29 28 28 27 26 24 25 24 24 28 29 32 32 37 29 28 30 21 20 21 18 24 33 34 36 35 30 42 37 32 34 33 35 32 33 31 28 18
28 29 30 32 33 34 34 35 35 36 35 34 33 31 26 23 23 22 22 25 28 29 36 39 31 30 26 35 33 26 28 35 36 35 38 41 24 35 34 35 32 36 37 37 33 25 17
32 34 35 37 39 40 41 41 41 41 41 40 38 36 32 24 23 22 20 21 21 23 23 34 23 17 21 29 42 32 34 33 37 37 34 32 35 21 37 37 36 36 40 36 35 27 20
37 39 40 41 43 44 46 46 46 45 45 43 41 40 38 34 28 23 19 20 17 15 7 7 11 15 11 18 25 33 40 36 37 35 38 27 35 35 29 45 39 41 37 35 33 26 27
41 42 44 45 45 45 45 46 45 44 44 42 40 39 39 36 29 30 18 16 14 8 10 4 8 9 11 10 20 14 44 41 37 29 28 32 19 26 34 26 37 38 29 26 31 28 19
43 44 44 44 43 43 44 43 42 40 41 43 39 36 33 34 32 31 18 14 10 12 6 8 10 13 14 13 21 23 40 51 44 39 39 33 36 23 20 32 26 30 30 11 8 10 12
43 43 43 42 41 41 41 40 40 40 42 44 42 37 29 38 30 25 18 18 17 7 22 11 13 6 8 15 19 25 33 53 47 40 24 33 20 41 34 34 34 41 37 14 8 5 10
42 41 40 40 41 41 41 41 42 41 41 43 42 35 27 32 26 22 21 29 14 21 13 17 22 17 14 13 13 26 23 46 48 48 32 24 31 30 38 40 37 32 41 41 29 22 7
39 40 41 41 40 40 40 41 42 40 38 39 39 30 18 19 20 19 27 36 25 16 16 10 9 7 10 14 7 7 22 13 35 37 49 33 16 25 26 33 40 41 37 23 26 11 13
40 41 41 40 39 39 39 38 38 36 32 32 32 27 14 16 18 17 21 30 30 17 14 15 14 12 12 14 8 8 9 5 13 27 35 49 40 36 25 36 43 49 49 36 35 31 9
39 39 39 39 38 37 36 35 35 33 30 29 28 21 16 14 12 10 9 16 17 25 30 20 21 24 20 20 16 7 10 8 15 10 14 26 22 41 42 29 30 41 52 45 27 27 36
41 40 39 38 37 36 35 33 30 30 28 26 24 18 17 16 9 10 9 9 6 9 22 14 10 15 16 12 9 8 12 18 16 12 3 10 11 17 21 37 38 33 42 51 54 42 42
39 39 39 37 36 33 32 29 27 28 24 23 23 19 19 10 7 21 21 13 16 12 11 11 8 11 16 14 12 10 12 13 12 11 6 13 14 15 14 20 21 32 39 46 55 41 42
40 40 39 39 38 34 29 26 26 25 21 20 19 20 15 16 15 15 16 15 14 9 6 6 7 7 9 10 15 14 16 26 31 26 22 19 19 20 25 27 33 34 28 50 54 54 41
38 38 37 36 34 32 29 26 24 22 19 18 18 20 17 17 17 17 13 8 9 10 7 3 8 7 5 9 11 15 15 17 22 24 18 18 15 19 27 24 25 35 44 45 53 57 55
37 36 34 32 31 28 27 25 22 19 18 18 15 15 16 19 20 19 14 13 13 12 12 6 8 9 8 11 13 18 19 18 15 14 12 19 21 19 13 15 23 32 57 46 45 48 44
33 33 33 30 29 27 25 24 22 18 18 17 15 16 17 23 20 19 19 16 13 11 19 17 14 15 16 19 20 18 18 22 22 26 22 18 18 14 12 8 9 37 30 42 47 44 42
33 33 33 30 29 26 25 23 21 18 17 15 15 15 19 24 22 21 16 21 16 15 19 17 9 12 20 22 19 16 22 26 25 26 30 23 23 14 6 8 22 28 19 15 40 52 42
33 34 33 32 31 29 26 24 22 19 18 15 14 17 18 23 26 19 21 14 17 17 12 12 11 13 15 16 14 13 8 9 9 7 20 31 30 26 13 7 6 8 17 21 30 47 49
35 34 33 32 30 29 27 25 22 19 18 17 15 16 18 24 25 21 24 24 18 17 20 14 14 13 12 8 12 18 20 15 9 14 14 31 29 27 30 13 13 16 20 12 19 31 36
33 34 34 33 31 28 26 25 22 21 18 17 14 19 20 25 24 14 14 22 17 16 18 13 17 5 4 7 5 9 14 17 19 27 21 27 29 23 28 17 13 10 9 6 10 19 31
31 32 32 31 31 30 27 25 23 21 19 18 13 17 20 24 25 25 25 16 15 12 20 20 18 14 12 7 7 8 13 12 17 16 18 25 35 35 30 27 20 10 2 8 20 22 21

GFSGBSN_700_spd_021.txt.gz
Wind_Speed
22 22 21 21 21 20 20 20 21 22 23 24 24 24 24 23 22 20 19 18 17 16 14 13 14 14 15 16 10 11 14 12 15 21 27 30 33 32 28 24 21 17 14 12 9 6 4
23 22 22 21 21 21 20 20 21 21 21 23 24 25 25 26 25 24 22 21 19 16 15 14 15 16 15 12 14 21 22 17 13 17 24 29 30 31 28 27 25 20 17 15 14 10 8
22 22 22 22 22 22 22 22 22 22 23 23 23 24 25 26 26 25 25 24 20 19 18 17 16 17 15 1 11 21 20 15 16 11 21 24 27 31 30 29 27 22 23 21 19 15 14
22 22 23 24 24 24 25 26 26 26 26 26 25 24 25 27 27 27 26 25 24 21 21 21 19 19 17 13 14 20 22 21 20 16 13 16 25 27 30 27 23 23 26 23 24 20 17
24 24 25 25 26 26 27 28 29 29 30 31 30 29 29 29 30 29 27 25 23 23 23 23 22 21 20 16 19 21 22 22 24 22 17 20 27 33 33 31 24 24 17 24 23 21 17
26 27 28 29 29 30 31 32 32 32 33 33 32 31 32 33 32 32 30 28 25 23 24 24 24 20 19 16 12 26 28 26 27 27 28 29 31 34 36 30 30 21 23 21 21 13 13
29 30 31 33 33 34 35 36 36 37 37 38 37 35 32 35 35 35 30 29 27 26 23 25 21 11 14 13 14 19 33 32 30 33 38 37 38 49 42 41 32 19 25 17 20 23 22
32 33 34 35 36 37 38 39 40 39 39 40 41 39 36 36 35 37 33 29 28 27 27 24 24 27 26 19 19 21 33 41 41 43 38 38 51 39 39 40 39 37 32 23 24 23 20
34 36 37 38 39 40 40 41 42 41 40 39 42 42 40 35 34 33 29 27 26 27 31 29 27 31 30 33 28 27 30 42 44 45 45 44 25 40 42 40 38 39 38 30 22 13 20
35 35 36 37 39 39 40 42 43 43 42 41 42 41 41 35 30 28 26 24 22 22 21 21 23 20 28 42 44 34 35 41 47 51 44 36 35 13 44 40 39 36 38 28 27 18 23
34 37 38 40 40 42 43 43 45 45 43 41 41 42 41 37 31 26 23 18 14 10 7 5 10 12 18 29 28 45 40 42 42 41 49 41 38 40 29 45 37 32 25 33 24 22 19
37 39 40 41 42 44 45 46 47 47 45 41 40 40 40 37 31 23 18 12 9 6 10 7 9 12 15 18 22 22 53 43 41 35 36 35 31 31 42 24 37 25 14 19 18 18 21
39 41 41 42 43 46 48 48 47 46 46 43 40 37 35 35 28 19 14 12 9 10 3 5 10 13 15 17 22 21 45 54 39 34 34 35 30 28 30 30 27 31 22 12 13 15 17
39 41 41 42 43 46 47 46 45 45 44 41 37 36 32 27 23 15 12 16 14 3 11 10 10 14 11 16 20 22 28 44 39 30 28 33 29 38 31 33 31 37 35 17 14 13 14
39 38 37 37 40 42 43 44 44 44 42 39 32 27 25 20 19 14 11 17 4 5 11 14 13 10 10 14 12 21 25 38 38 31 22 32 30 15 39 34 32 29 41 39 13 6 6
36 35 35 37 38 39 39 40 42 42 41 38 30 24 21 20 17 13 9 15 8 7 6 4 5 4 4 11 12 16 19 24 36 37 36 20 12 29 23 33 28 28 33 22 25 14 12
35 34 35 37 38 39 39 40 41 40 38 35 30 25 18 18 18 12 5 11 18 17 13 5 6 9 4 1 5 10 11 12 31 32 38 31 21 12 28 34 35 32 35 26 23 16 8
34 35 36 36 39 41 40 40 39 38 36 33 29 22 18 18 12 11 9 11 14 18 18 15 11 10 9 9 2 3 8 9 16 19 26 31 23 23 24 23 35 37 33 36 23 14 27
36 37 38 38 40 40 40 39 38 36 34 32 28 19 21 14 13 14 10 8 8 10 11 7 11 8 5 6 3 6 5 7 6 7 14 23 21 20 18 18 28 35 38 34 33 22 25
36 37 38 39 40 39 38 36 36 33 31 28 26 21 21 14 17 13 14 11 10 11 7 9 8 9 11 9 9 4 3 3 6 6 8 15 13 26 23 25 23 24 25 36 38 37 34
35 36 37 37 36 36 36 35 34 32 29 27 24 20 20 20 17 14 14 12 11 13 7 7 3 6 10 7 13 16 18 10 6 4 5 4 3 11 15 19 19 20 27 25 29 39 38
32 34 34 34 35 36 35 34 33 32 28 24 22 21 20 20 20 15 16 12 10 14 15 12 7 7 5 4 3 8 11 13 13 11 8 9 4 8 10 15 13 17 28 32 29 32 28
31 33 34 36 36 35 35 36 33 31 27 25 23 20 20 20 19 14 19 17 13 13 7 12 14 17 2 5 7 8 11 11 11 12 10 10 5 4 8 9 14 22 37 26 29 27 30
31 31 33 35 37 37 34 33 30 31 28 24 22 20 21 23 20 20 18 16 12 14 17 13 12 14 12 9 10 9 12 12 13 15 16 15 11 7 9 5 10 16 20 24 23 24 32
33 34 35 36 37 37 37 37 32 26 27 23 21 20 21 26 26 20 16 17 17 16 16 18 12 12 12 12 9 7 4 9 12 12 14 15 16 9 11 18 23 23 12 16 18 24 22
34 34 35 36 37 37 38 39 36 26 24 24 21 21 21 24 25 23 23 19 18 17 13 5 7 7 10 10 7 3 4 4 4 5 17 23 23 15 9 12 12 13 26 25 26 26 25
34 35 36 37 38 40 41 41 37 32 23 22 22 21 21 26 23 25 19 16 19 17 19 16 3 4 8 10 6 6 7 5 6 7 7 14 20 28 26 16 15 22 15 11 16 11 13
34 36 36 37 39 40 41 42 39 34 27 22 21 19 21 27 22 12 18 29 24 23 22 17 14 5 5 6 5 5 6 7 9 13 13 13 10 16 25 19 24 21 28 20 12 13 17
35 37 36 37 39 40 42 42 41 35 32 20 26 21 22 26 26 15 11 10 11 9 12 13 13 9 6 5 6 5 6 7 10 12 10 20 25 12 18 22 11 21 29 28 23 25 23

GFSGBSN_700_spd_024.txt.gz
Wind_Speed
17 17 17 18 18 19 19 19 20 20 21 21 21 21 22 22 22 21 20 20 19 17 16 14 14 14 14 16 14 15 13 15 19 23 25 29 32 29 25 22 18 20 12 12 11 7 6
19 19 19 19 19 20 20 21 22 22 22 22 23 23 23 23 22 22 21 21 19 20 19 17 15 15 15 13 14 25 21 17 12 17 21 26 29 27 20 19 22 14 18 14 11 9 9
21 21 21 21 22 22 22 23 24 25 25 25 25 26 26 26 25 24 23 21 20 21 22 21 19 18 16 6 12 21 22 18 14 11 16 20 23 30 20 20 24 23 18 15 15 12 10
23 23 24 24 24 24 25 25 26 28 28 28 27 27 28 28 28 27 26 24 22 21 21 22 22 22 20 15 19 20 24 23 20 18 14 18 24 27 20 17 18 22 21 22 18 18 15
24 24 25 26 27 27 28 28 29 31 32 31 31 30 31 31 31 29 28 27 25 23 21 22 23 23 23 19 22 21 23 24 23 23 20 23 25 25 25 21 19 21 23 26 20 16 14
27 27 28 28 29 30 31 31 32 33 34 33 32 31 31 34 34 32 30 28 27 26 23 22 23 21 23 15 19 26 26 30 30 30 25 28 28 26 31 31 35 28 27 23 24 22 20
28 28 29 30 32 33 34 35 35 37 38 38 37 35 33 34 33 32 30 29 27 28 26 22 21 15 23 19 23 24 32 32 33 35 34 29 30 42 37 34 30 25 27 27 23 21 16
28 29 31 32 34 35 35 35 36 38 40 41 40 38 34 34 32 32 29 26 26 28 31 24 23 26 28 22 22 27 34 40 40 42 32 28 42 31 29 29 30 31 26 30 23 18 18
29 31 33 34 34 35 37 38 39 40 41 42 42 40 36 33 31 28 27 26 22 26 31 30 29 31 28 35 29 32 36 38 40 38 41 37 18 30 29 31 32 34 34 29 22 18 20
31 33 34 33 34 35 36 39 39 40 41 43 44 44 40 34 33 27 24 22 19 19 17 19 28 25 31 37 40 34 34 40 32 39 36 36 30 24 33 34 33 35 32 28 27 25 24
33 33 32 32 33 36 38 40 42 43 43 44 45 46 41 37 31 27 23 16 11 7 7 5 14 16 23 39 21 42 34 39 35 32 39 36 35 32 36 35 32 32 24 27 29 28 26
31 31 32 34 35 37 37 38 38 38 40 41 44 45 43 38 29 22 18 12 8 5 10 6 8 10 12 30 19 18 40 37 33 31 33 35 21 33 28 26 27 23 21 22 23 27 28
31 34 35 36 35 36 37 36 37 38 39 37 39 40 39 35 27 16 13 9 8 13 1 4 5 6 12 15 27 23 38 46 39 39 45 34 38 25 26 27 25 29 24 15 15 23 22
32 34 34 33 32 35 38 38 37 37 38 38 38 38 33 29 22 15 13 7 18 2 6 10 7 12 12 17 20 27 26 45 46 36 27 38 31 42 34 37 29 36 35 21 16 14 19
31 31 32 33 32 36 38 39 38 39 40 37 37 32 30 24 22 15 12 13 17 7 11 16 16 9 15 11 12 22 28 36 49 42 32 34 38 33 28 35 36 36 46 39 8 10 12
29 30 33 34 35 36 38 40 40 40 40 38 37 32 25 23 19 12 6 11 7 11 16 9 9 4 5 7 9 13 22 22 38 44 30 26 31 25 35 31 32 29 34 35 31 17 18
30 31 34 36 37 40 41 40 41 39 38 35 33 23 25 21 16 8 6 10 13 12 15 8 8 9 8 7 6 10 13 10 25 37 34 23 23 33 28 42 39 39 32 40 31 29 13
29 31 34 36 37 39 41 42 40 39 37 33 29 16 22 17 10 10 9 12 14 10 12 12 15 12 10 9 6 7 8 5 17 15 28 33 22 18 37 35 34 39 35 42 29 32 35
29 30 32 35 38 40 40 41 43 38 37 34 28 23 20 14 9 13 13 11 13 13 14 9 7 12 13 9 5 4 4 2 9 9 22 25 28 26 20 31 29 42 41 38 37 26 31
28 30 32 34 36 39 41 43 41 41 34 32 27 13 14 11 14 14 14 12 12 12 11 13 11 11 13 17 13 4 2 3 4 3 17 30 23 38 30 30 31 40 41 38 41 39 30
28 30 32 33 34 36 39 39 44 41 32 29 24 13 19 15 11 13 12 11 13 13 12 10 13 10 7 7 16 14 9 4 3 3 1 13 25 20 25 15 15 30 41 42 43 41 38
30 31 33 34 36 36 37 39 40 41 32 26 20 21 20 18 14 14 10 9 11 13 15 11 12 16 13 8 7 10 5 6 5 4 1 3 14 13 23 15 11 16 21 28 38 41 38
31 32 34 36 36 36 37 38 40 39 31 26 22 18 18 19 13 13 10 13 16 15 8 9 16 17 15 11 10 11 13 14 14 11 7 4 9 11 23 19 16 23 30 28 28 30 30
31 32 34 35 36 37 38 38 38 38 30 20 18 17 20 18 14 13 16 15 16 14 19 16 14 15 11 12 9 10 14 14 16 16 14 9 10 9 11 12 15 21 23 27 33 29 29
30 32 34 35 36 37 39 38 38 37 34 21 15 16 18 21 16 15 13 14 16 16 15 14 11 9 12 7 7 8 10 9 14 15 17 18 14 14 19 20 8 11 10 11 17 27 27
30 32 34 34 36 38 39 39 39 37 38 22 20 16 19 23 12 13 19 14 13 13 11 6 10 10 6 7 6 7 7 5 8 8 16 16 18 18 13 20 14 10 25 10 7 14 17
31 32 33 34 36 37 40 39 39 39 38 25 22 19 19 27 20 18 13 15 15 15 14 11 7 4 6 4 7 8 12 8 8 13 15 23 19 23 24 19 17 14 6 7 14 7 7
32 32 32 33 34 36 38 37 38 40 35 29 23 20 21 25 24 14 22 17 15 14 15 10 9 6 7 6 6 7 9 7 11 14 10 17 22 23 24 25 27 14 14 14 10 10 14
32 32 31 32 33 35 36 37 39 38 33 24 23 18 19 22 24 20 13 10 12 11 11 13 10 6 6 5 7 6 7 7 9 14 14 23 22 21 20 26 19 17 26 20 23 19 18

GFSGBSN_700_spd_027.txt.gz
Wind_Speed
17 17 17 17 18 18 18 19 19 19 20 21 21 21 21 22 20 19 18 18 18 19 19 18 16 18 19 19 18 18 11 18 22 22 24 28 31 29 28 22 17 21 12 12 8 8 6
18 18 19 19 20 20 21 22 22 23 23 23 23 24 24 24 23 22 21 19 19 19 20 20 19 20 21 21 16 24 23 16 18 22 23 28 30 29 24 21 24 17 20 14 12 11 9
19 19 19 19 20 21 22 23 24 25 25 26 26 27 26 26 26 25 23 22 20 19 19 19 20 24 24 14 19 22 23 20 16 15 24 26 25 29 24 23 21 23 14 20 20 16 12
20 20 20 21 21 22 23 24 25 25 26 26 27 27 29 29 28 27 26 25 24 21 20 20 20 23 27 19 21 20 22 25 21 18 21 21 26 25 29 17 21 25 24 25 22 19 17
21 21 22 22 23 24 25 27 28 28 29 30 30 30 30 30 30 30 29 27 26 25 22 21 21 21 26 25 25 22 22 26 24 21 21 21 25 26 29 26 25 26 28 28 23 24 21
23 24 24 25 26 27 28 30 32 33 34 34 34 34 33 33 32 30 30 30 28 27 25 23 23 19 23 14 23 29 27 26 26 24 22 25 28 30 32 37 37 30 32 28 28 24 23
24 25 27 28 28 29 29 31 33 34 35 36 36 36 36 35 33 32 29 28 27 30 26 21 18 19 18 18 25 24 31 30 30 29 30 31 33 45 39 39 33 29 27 30 25 28 24
24 26 26 26 25 24 24 26 28 30 33 35 36 37 37 38 37 33 29 27 25 28 36 30 26 30 27 23 21 26 32 34 37 41 32 28 44 33 31 33 35 34 33 31 29 21 20
24 25 25 25 24 26 27 28 29 31 33 35 37 38 37 40 39 33 34 27 24 26 35 36 30 33 29 32 29 26 36 38 39 41 42 40 21 31 31 33 36 38 37 32 30 26 25
23 25 26 26 27 28 30 30 30 31 33 35 36 37 38 36 40 31 21 30 25 21 18 25 27 30 36 33 39 30 35 39 34 44 41 36 31 23 35 35 35 37 35 32 25 28 30
24 25 26 26 28 29 31 31 30 30 32 34 35 35 38 37 36 31 27 21 18 11 7 5 13 18 21 41 14 41 37 42 34 35 41 45 36 32 35 37 33 34 26 32 31 30 28
24 26 27 29 29 31 31 32 32 33 33 35 35 37 37 37 29 25 23 16 6 7 11 8 7 9 16 32 25 16 40 42 37 31 33 36 28 32 30 30 28 27 24 25 28 32 30
24 26 26 27 28 32 36 36 35 35 35 36 37 36 36 34 29 23 16 11 11 16 3 5 3 4 15 19 31 28 41 46 51 46 44 37 41 30 29 29 31 28 29 21 21 24 17
24 25 26 28 32 34 37 40 40 38 37 35 35 36 37 35 28 20 12 9 18 16 10 14 16 16 15 20 25 33 36 43 49 44 35 39 36 45 33 39 36 36 38 27 21 18 19
24 26 27 28 30 33 34 40 44 44 36 35 33 30 16 28 26 17 10 15 20 17 17 22 22 18 18 21 20 35 39 43 45 48 47 40 44 29 42 35 38 34 46 39 29 30 20
26 27 28 30 30 32 35 38 41 44 40 35 34 20 11 29 23 11 11 17 16 15 16 17 18 15 18 6 20 23 40 34 39 47 42 37 30 38 29 34 37 34 37 36 33 20 19
26 28 30 31 33 34 34 36 39 44 41 34 29 14 21 24 13 13 14 14 17 18 15 16 22 24 19 21 16 20 24 14 21 30 46 45 31 23 38 49 44 46 36 41 33 31 13
26 28 30 32 34 35 34 35 36 40 43 34 23 13 21 19 12 13 13 15 16 16 15 17 20 21 21 18 21 14 15 5 14 27 30 48 30 35 46 39 36 38 42 40 33 33 32
26 29 31 33 35 36 36 34 36 40 41 38 20 14 15 16 15 14 15 14 12 9 14 9 13 18 16 15 12 11 7 8 8 6 13 31 35 29 30 36 39 45 42 37 40 29 31
26 29 30 32 35 36 37 36 35 37 37 35 18 12 16 8 15 14 15 12 14 11 11 12 12 13 19 18 16 17 15 5 6 6 19 25 31 38 27 41 40 42 43 42 37 39 29
28 30 31 32 34 36 38 38 38 37 36 33 10 11 15 11 15 15 12 15 14 11 10 10 14 15 12 11 17 9 10 10 3 8 5 13 24 33 35 22 30 39 44 43 44 38 38
28 30 32 32 32 35 37 39 40 39 36 34 15 14 13 15 13 13 14 12 15 15 13 13 12 15 14 14 15 21 12 9 5 4 2 11 19 26 31 33 16 20 37 44 43 39 36
29 30 32 32 31 34 36 37 39 39 38 36 20 14 14 15 14 14 14 14 17 18 8 9 14 16 13 16 12 17 19 16 15 11 6 4 13 21 26 31 19 23 29 33 37 40 34
30 31 32 32 31 34 35 36 36 37 39 39 20 16 13 17 13 16 18 18 15 15 19 19 14 16 16 14 18 16 15 19 18 16 12 9 8 10 23 26 20 26 27 23 26 29 33
31 31 32 32 30 33 34 35 35 35 37 38 22 17 18 21 14 15 12 15 17 16 15 14 14 13 11 12 11 14 14 15 21 21 20 15 12 10 16 28 15 29 21 27 31 31 24
32 32 32 32 29 33 33 35 35 34 36 37 25 18 20 25 21 9 19 17 14 15 15 10 10 13 10 10 11 13 8 7 19 20 18 20 18 17 12 16 18 8 16 13 17 20 27
34 33 32 31 30 32 33 35 34 32 34 34 28 18 19 25 20 18 18 16 16 16 16 14 9 8 6 6 9 14 14 7 9 19 20 21 24 23 22 14 17 10 10 19 17 8 12
33 31 31 30 29 30 32 34 33 31 32 31 29 21 18 23 22 12 18 16 17 12 13 10 12 1 7 5 5 6 10 5 10 12 11 20 27 28 26 25 20 11 10 13 11 15 10
33 30 29 28 28 29 31 32 31 31 30 25 25 16 15 21 19 19 17 11 11 10 12 13 9 8 4 5 5 6 9 6 10 15 18 14 16 25 27 33 16 24 12 10 8 8 5

GFSGBSN_700_spd_030.txt.gz
Wind_Speed
16 16 16 17 17 18 19 20 20 21 21 22 23 23 23 23 21 21 19 19 19 18 18 19 20 22 21 22 18 20 9 17 22 20 23 27 28 28 29 22 19 19 21 15 9 8 5
17 17 18 18 19 20 21 21 22 23 24 24 26 27 27 27 26 25 22 21 20 20 19 20 19 23 25 25 15 25 22 16 20 21 21 27 29 27 25 24 22 19 18 22 15 15 10
18 18 19 20 21 21 22 23 24 25 26 27 27 28 29 29 30 29 28 25 23 22 21 21 21 23 27 18 17 14 23 18 18 20 23 23 24 27 27 25 23 21 24 19 19 14 13
18 19 20 21 21 22 23 25 26 27 28 28 29 30 30 30 30 29 30 29 26 25 24 23 23 24 30 21 25 22 22 19 21 18 22 19 24 24 26 23 23 27 23 26 20 20 17
20 21 21 22 23 24 25 25 25 26 27 29 30 32 32 33 32 32 31 30 28 28 26 25 26 26 27 24 27 22 24 19 22 21 20 20 23 27 26 30 29 27 31 28 24 21 19
20 21 21 22 23 24 25 26 26 27 28 29 32 34 37 37 38 39 35 32 30 28 28 27 29 25 21 18 17 26 26 22 24 22 22 25 27 30 32 36 40 30 29 27 27 25 24
19 21 21 22 22 24 25 27 27 28 29 30 31 33 35 35 37 42 41 35 29 31 28 27 18 27 9 8 17 20 30 26 27 27 31 30 33 44 42 37 34 28 28 29 27 25 32
20 21 23 23 22 23 25 28 29 30 30 30 31 30 31 33 35 35 39 38 36 32 44 35 36 38 32 19 18 22 27 34 36 39 32 30 47 36 32 34 33 35 31 32 28 27 25
19 22 22 21 22 24 26 28 30 30 31 30 31 31 30 33 34 34 31 35 39 36 42 51 38 40 31 34 34 26 32 37 40 40 40 44 28 32 33 35 36 39 37 32 30 26 23
19 20 20 21 23 26 29 29 31 34 36 35 31 31 32 30 33 31 27 34 32 33 27 36 24 21 35 37 44 32 33 38 36 44 42 39 36 29 36 37 36 39 37 32 30 30 31
20 21 23 24 26 27 31 33 35 37 38 37 34 32 30 30 28 26 31 31 23 18 8 8 11 7 8 44 20 42 35 39 43 36 44 49 35 38 34 40 34 36 30 33 31 32 29
21 23 25 26 26 27 30 34 38 39 39 37 35 33 29 26 25 25 28 21 10 7 11 8 3 12 8 29 30 5 42 40 39 35 36 42 35 34 33 28 32 28 27 29 31 32 26
24 25 24 25 27 29 30 32 35 37 39 37 36 36 29 24 26 28 25 14 10 13 13 22 26 21 14 16 33 28 38 46 52 49 46 39 44 37 34 30 31 31 32 23 19 23 16
25 26 27 28 30 32 33 33 34 36 38 38 35 34 30 27 22 26 16 13 14 16 25 24 26 28 20 15 18 36 34 47 49 45 33 41 42 47 36 44 36 39 40 27 22 17 19
26 27 28 30 32 33 33 34 33 35 37 39 39 27 6 13 24 15 11 15 7 21 23 29 30 19 21 18 14 21 41 44 47 50 52 40 43 38 43 36 40 38 46 39 30 28 23
26 27 28 30 32 33 33 34 35 33 37 38 41 19 2 16 23 11 14 22 17 16 24 23 23 23 29 31 28 24 21 38 39 43 44 43 29 38 40 34 38 41 38 35 36 20 19
26 28 29 31 33 33 33 34 36 37 35 38 36 13 12 28 12 13 18 20 22 19 20 18 21 24 26 29 24 27 12 18 8 33 40 46 41 32 39 51 44 42 39 40 33 31 14
26 28 31 32 35 35 34 34 36 39 41 37 34 13 17 19 14 14 16 19 19 22 16 19 17 16 19 21 25 25 18 11 11 13 21 51 45 42 38 41 42 42 46 40 30 32 32
27 29 31 33 35 36 36 36 36 37 39 40 33 11 8 20 14 18 18 21 17 21 13 15 18 18 20 20 18 15 24 13 19 13 10 18 42 39 38 37 45 49 42 41 37 32 32
28 29 31 33 34 35 38 37 36 36 36 36 28 13 14 6 11 16 18 17 17 15 17 11 17 18 18 16 15 15 27 18 19 19 16 18 26 40 27 35 38 44 43 42 39 38 29
29 30 31 33 33 34 38 38 37 36 35 36 29 11 15 16 16 16 14 17 21 19 16 17 17 16 17 21 18 19 26 29 12 14 5 9 17 27 45 34 30 39 42 43 48 38 38
30 30 31 33 33 33 35 36 37 38 36 36 34 21 19 18 13 13 14 17 17 19 18 20 18 17 19 18 15 18 19 20 20 14 16 3 11 18 25 34 26 24 42 42 42 41 34
31 31 32 33 32 32 33 35 35 37 39 37 35 19 17 19 13 15 14 18 19 18 16 15 23 22 21 20 18 19 20 23 24 22 17 9 8 9 24 23 26 26 25 40 41 40 35
31 31 33 33 32 32 32 33 33 34 36 37 35 24 21 24 15 16 18 18 15 16 20 17 16 18 19 20 19 19 19 20 21 16 9 10 10 9 18 17 19 23 24 18 35 36 36
31 32 34 35 34 31 31 32 32 33 34 34 34 25 22 28 21 19 17 16 18 16 16 17 20 9 16 19 19 19 20 14 23 19 13 8 9 10 8 13 15 17 20 25 14 28 34
32 33 33 34 31 28 29 31 31 33 32 33 33 26 22 26 17 15 15 19 18 13 14 12 21 15 13 14 15 16 8 9 16 26 14 12 11 8 8 7 12 13 15 14 24 17 4
34 32 30 29 28 28 29 29 30 30 30 34 34 25 23 27 15 15 20 16 18 20 18 15 14 13 15 9 10 14 13 10 7 22 22 17 14 16 12 8 3 10 8 17 21 6 10
31 28 26 27 27 28 27 27 28 30 31 32 31 24 22 26 23 7 14 17 12 11 12 14 13 14 11 6 5 9 8 6 6 6 3 20 18 19 19 14 3 1 5 10 10 10 17
27 26 26 27 27 25 26 27 29 30 27 26 26 21 17 21 22 18 13 11 5 7 10 16 11 10 7 12 11 8 15 12 14 7 3 10 8 20 25 25 5 5 8 2 1 4 9

GFSGBSN_700_spd_033.txt.gz
Wind_Speed
14 14 15 15 16 17 18 19 20 21 22 23 24 25 25 25 25 25 24 23 23 23 21 20 21 22 22 24 11 20 10 14 20 20 20 25 31 27 26 20 15 21 24 17 5 3 7
14 15 16 17 18 19 19 20 20 21 22 23 24 25 25 26 26 27 26 25 25 25 24 23 21 24 24 25 15 22 17 17 14 18 19 25 30 29 22 21 22 17 25 23 18 15 8
15 17 18 18 18 19 19 20 21 22 23 23 25 27 27 27 27 27 27 27 26 26 27 26 25 26 29 16 20 19 22 20 20 16 21 19 24 26 20 22 20 23 24 24 27 18 4
18 18 19 19 19 20 20 22 22 21 24 25 26 27 27 29 29 29 29 29 27 27 28 28 29 29 32 19 21 26 23 15 20 19 20 20 21 26 24 22 22 27 25 28 30 20 18
19 21 21 20 19 20 21 22 22 24 24 24 26 27 28 29 30 32 35 32 31 26 25 28 30 32 30 27 23 20 24 22 15 21 19 22 27 26 22 28 28 30 32 28 25 23 22
21 22 22 21 21 20 21 24 25 24 24 26 27 26 27 27 29 32 32 33 30 28 23 23 31 29 23 17 14 17 23 25 21 23 20 28 27 27 30 34 37 31 26 26 29 25 25
19 21 22 21 21 22 22 23 25 27 28 31 32 30 29 29 31 31 32 34 36 35 36 29 28 32 27 15 18 17 26 29 24 24 32 34 34 44 43 39 33 26 29 28 25 26 22
19 21 21 22 23 24 25 28 28 31 32 33 35 31 29 29 31 29 31 30 32 37 53 42 32 34 33 21 29 24 17 34 37 40 32 29 45 41 36 35 34 34 35 38 27 28 30
19 21 22 22 24 27 30 32 33 34 34 35 34 32 30 31 30 28 27 29 29 30 46 29 19 13 20 36 37 32 27 30 42 43 43 45 40 36 36 36 37 38 39 39 31 29 28
19 21 23 24 26 28 28 30 33 36 37 36 33 33 34 33 29 27 27 26 26 23 26 25 25 24 24 24 48 33 37 33 42 46 45 45 39 24 39 41 39 42 38 37 34 31 26
20 22 24 26 27 28 30 33 35 36 37 35 34 36 34 34 30 26 26 25 22 11 5 14 13 10 18 12 21 36 38 39 46 42 43 51 41 41 38 45 39 39 34 35 37 36 32
22 23 25 26 28 30 32 33 33 34 34 33 35 36 35 26 23 25 25 19 15 5 5 12 29 32 23 8 20 16 28 40 39 43 39 46 36 34 46 32 36 33 32 32 34 36 24
23 24 25 28 29 30 32 33 34 33 34 33 34 36 33 25 19 21 19 21 8 4 14 19 40 38 31 32 17 15 27 41 43 46 50 39 50 41 28 42 31 37 33 20 16 21 14
24 26 26 27 29 31 33 34 34 34 35 36 36 36 24 14 22 24 15 15 11 10 21 31 34 38 29 33 21 20 15 36 42 44 30 38 34 53 42 40 40 43 45 15 9 10 13
26 27 27 28 31 33 34 35 36 35 35 37 35 28 15 21 28 22 11 13 17 13 20 24 31 24 29 31 31 39 22 15 35 48 46 37 46 24 48 38 41 43 48 39 20 20 11
26 28 29 30 32 33 35 35 38 37 37 36 37 21 10 22 26 12 11 18 18 17 19 18 23 23 27 24 27 31 24 9 8 17 43 47 27 43 36 41 39 44 37 35 34 10 10
28 29 30 31 33 33 35 36 37 40 36 34 34 18 9 23 12 12 18 17 21 22 18 18 24 20 23 17 23 23 16 26 15 6 9 26 50 46 36 52 55 43 38 45 33 29 6
29 29 31 32 34 35 36 36 36 38 38 33 35 14 5 17 13 15 12 19 20 20 18 20 13 15 18 20 18 20 24 26 28 26 20 11 19 42 50 37 49 38 46 45 33 31 33
29 30 31 33 35 35 36 36 35 36 39 41 36 13 10 23 7 14 15 17 17 23 16 22 20 14 20 20 24 15 26 27 33 27 24 16 7 23 39 40 34 56 46 48 39 32 34
29 30 31 33 35 35 36 36 34 34 36 36 36 29 32 2 7 9 13 19 21 22 17 14 16 17 22 21 17 24 25 22 38 25 20 19 15 22 17 36 33 48 46 44 37 39 39
30 30 32 33 33 34 35 35 34 32 35 36 33 27 26 25 11 6 10 19 18 21 20 15 20 16 16 20 22 13 20 27 39 23 21 24 13 15 31 28 25 28 51 44 48 37 40
30 31 31 33 35 34 34 32 35 34 31 34 34 32 30 19 12 9 10 14 17 20 18 20 18 22 12 21 13 24 18 23 26 25 23 24 13 15 19 31 30 30 49 46 43 43 35
31 31 32 34 34 31 31 30 32 33 34 34 33 30 29 26 15 13 11 18 22 18 15 17 20 21 22 20 18 20 22 20 23 26 31 22 24 22 5 17 13 10 27 49 45 40 41
30 32 33 34 32 29 29 29 29 30 32 33 32 32 30 28 21 18 18 15 21 19 20 17 17 24 22 14 17 20 17 15 13 15 28 19 19 16 7 3 2 16 26 11 41 35 34
31 32 32 31 29 27 28 27 27 28 29 30 31 30 28 31 25 12 14 17 18 18 14 12 18 22 10 16 18 20 14 9 10 12 21 4 8 11 7 3 1 20 8 7 18 19 8
30 31 29 28 28 27 27 26 26 26 28 30 30 29 27 28 27 26 16 14 17 17 23 13 12 14 18 16 14 6 5 9 7 5 12 6 6 9 8 5 2 12 4 11 11 17 11
29 29 28 28 27 26 25 24 26 28 30 31 29 25 22 26 24 26 24 19 15 15 18 17 18 17 20 7 4 5 5 6 6 11 20 9 7 8 8 7 7 10 16 9 9 9 17
30 28 27 25 24 24 25 26 27 28 28 27 25 17 17 22 18 22 24 19 17 9 14 15 17 12 15 18 11 12 11 12 11 12 19 8 8 6 3 5 5 15 15 23 14 13 20
29 26 25 22 23 25 27 28 27 23 22 21 21 17 15 18 20 15 12 11 12 1 7 9 14 11 10 12 16 10 15 11 20 11 9 9 10 11 6 8 10 7 22 18 6 3 14

GFSGBSN_700_spd_036.txt.gz
Wind_Speed
16 16 16 16 15 16 16 16 16 16 16 16 16 17 18 18 19 19 19 19 21 23 25 23 22 23 22 19 8 12 12 9 17 18 19 21 28 31 31 24 20 20 15 10 2 8 7
17 17 18 17 17 16 17 18 18 17 20 21 21 21 20 21 21 21 22 21 21 22 24 24 24 25 26 18 12 13 15 16 13 14 19 22 26 29 29 26 27 19 17 17 15 17 14
17 17 17 16 16 16 17 18 18 21 21 20 22 22 22 23 22 23 25 26 25 24 24 24 25 26 28 11 18 18 14 17 18 15 17 16 18 30 26 25 23 21 21 20 22 26 19
17 17 17 17 17 18 19 20 21 21 20 21 23 25 23 21 23 23 24 25 27 27 24 24 25 26 28 20 20 21 19 19 20 22 16 16 16 27 32 28 28 23 24 30 23 16 20
17 18 18 17 17 19 19 19 21 21 22 23 25 26 24 24 24 25 22 24 28 29 25 22 23 24 24 24 20 21 23 20 19 23 20 24 24 29 31 28 27 30 29 25 26 26 29
17 17 18 18 19 19 19 20 23 23 26 27 28 27 26 24 26 26 25 25 27 30 24 27 21 21 13 12 15 19 24 20 25 22 25 30 34 36 40 37 37 27 25 27 28 29 30
16 18 19 20 20 21 22 24 26 28 29 29 30 28 26 27 29 29 26 27 30 31 28 26 21 16 15 13 24 21 24 24 27 22 36 35 41 47 50 46 39 29 23 23 28 26 23
18 20 21 21 22 24 27 28 28 30 32 32 33 31 27 27 29 28 28 30 28 32 34 14 14 19 2 19 26 26 28 33 34 37 31 33 48 45 44 41 35 32 27 28 28 26 22
18 20 22 23 25 26 27 29 30 32 33 34 33 31 28 26 28 26 26 24 24 22 23 10 14 14 20 13 19 22 27 38 41 39 40 44 33 43 43 42 35 37 36 31 33 27 23
20 21 24 25 26 26 27 29 31 31 31 31 30 29 29 27 28 26 21 20 21 19 12 4 12 12 20 21 4 22 24 32 42 48 42 44 45 23 44 42 37 39 43 38 35 30 28
22 23 25 25 25 27 30 30 29 30 30 31 31 31 28 30 26 22 19 18 16 15 4 15 8 15 14 18 23 9 16 31 44 38 42 56 42 38 44 49 39 44 39 39 37 33 30
23 23 25 26 27 28 30 31 32 32 32 31 32 31 27 23 19 18 16 15 10 2 4 11 15 31 26 27 24 27 17 19 34 43 43 49 33 38 41 34 42 33 30 33 32 34 21
25 26 27 27 28 29 31 32 33 33 33 31 30 30 25 14 13 13 12 13 3 4 10 14 28 40 30 32 32 28 27 14 11 34 46 45 46 33 30 43 34 37 31 23 13 15 11
26 27 27 28 29 30 32 32 33 33 33 31 28 29 21 9 16 11 6 7 7 11 15 19 29 29 25 33 32 31 26 27 11 22 20 39 39 47 35 37 43 41 39 18 13 6 14
28 28 28 29 30 32 34 35 34 33 32 31 27 26 14 15 17 11 11 6 6 18 18 23 27 23 27 25 25 33 31 19 24 16 9 19 45 15 51 38 35 42 51 38 18 18 13
30 29 29 30 31 32 34 35 36 34 30 30 29 23 13 13 10 12 12 9 12 15 19 19 20 17 23 17 21 22 20 14 20 12 17 13 11 49 25 43 40 47 33 41 39 7 5
31 31 30 31 32 33 35 35 35 36 29 29 29 22 14 16 14 7 6 3 9 14 16 17 18 15 12 18 14 14 14 29 21 23 17 14 8 32 34 40 54 39 46 40 35 28 7
31 31 31 31 32 33 34 34 33 35 32 28 29 22 19 23 16 13 11 11 12 17 16 19 17 9 12 13 14 12 15 23 33 36 27 12 12 15 37 42 35 45 33 41 26 21 31
31 31 30 32 33 34 34 33 32 31 34 36 33 23 22 20 3 13 16 14 11 17 18 12 10 8 16 18 13 15 17 16 13 27 20 17 5 8 28 30 30 25 48 40 47 32 36
31 30 30 32 33 33 35 34 31 30 31 31 33 28 29 9 16 15 16 14 10 9 16 16 16 12 15 20 18 13 15 15 19 17 28 15 15 17 12 16 22 26 33 45 43 36 34
31 29 31 32 31 33 34 33 30 28 30 29 30 27 25 27 16 10 11 11 12 15 13 11 16 14 16 20 20 15 13 15 21 19 20 13 11 8 22 28 23 20 21 40 41 43 39
27 28 30 31 33 32 31 29 31 29 27 28 28 28 27 22 19 14 10 10 12 15 17 17 16 17 17 20 20 23 17 19 16 22 18 18 11 21 16 16 20 14 24 19 43 45 40
26 28 31 30 29 29 28 28 29 30 30 27 27 27 27 28 23 16 12 14 19 20 15 12 17 17 18 19 19 21 19 19 18 18 13 16 19 18 6 10 14 6 6 17 37 40 44
26 29 29 29 28 28 28 27 27 28 29 29 28 29 27 30 27 23 17 12 14 16 23 17 16 17 17 13 17 20 21 20 17 14 12 16 14 9 8 2 8 11 9 12 18 20 25
27 28 29 28 27 26 25 25 26 27 30 30 28 26 24 28 28 24 24 19 13 11 12 13 14 16 23 21 19 14 7 5 4 1 5 10 13 7 5 8 12 11 6 8 10 14 9
27 28 27 25 24 23 25 26 26 27 28 27 24 21 20 23 26 22 22 17 16 12 10 11 9 12 23 12 9 4 4 2 4 4 4 4 9 14 7 3 5 12 9 8 25 18 21
28 27 24 23 23 24 26 27 26 25 24 23 21 16 16 21 20 16 18 19 17 17 9 11 16 13 18 16 11 4 3 5 6 4 6 4 8 1 3 7 11 16 5 9 13 8 23
26 24 23 23 25 27 28 26 23 20 20 20 20 16 14 18 17 17 13 14 17 14 6 10 7 14 15 17 14 11 7 12 13 20 14 7 6 7 5 7 5 14 21 32 15 8 17
23 23 23 25 26 24 22 22 18 14 19 19 19 17 13 11 10 10 12 21 9 6 7 9 10 11 13 13 14 10 12 18 16 8 21 13 16 10 8 11 11 13 25 18 11 19 9

GFSGBSN_700_spd_042.txt.gz
Wind_Speed
15 15 14 14 14 14 14 15 16 16 17 17 18 20 21 20 19 19 19 19 18 18 18 17 17 16 13 11 13 14 12 9 11 18 20 23 22 23 25 25 21 18 18 16 14 11 7
15 15 14 14 14 14 15 15 16 17 18 19 20 20 21 21 20 20 19 20 18 18 18 18 15 14 13 12 14 16 12 12 10 15 19 19 19 18 19 27 26 19 20 18 17 11 8
14 14 15 16 17 18 18 19 20 22 23 22 21 22 22 20 20 21 22 21 18 18 20 21 18 15 13 14 15 17 14 16 15 14 16 15 17 18 22 23 24 23 16 25 20 15 9
17 17 18 19 19 19 20 21 22 23 24 25 25 26 27 24 22 23 23 23 20 19 22 22 19 14 11 8 16 20 19 17 19 19 21 20 22 22 21 23 23 27 27 21 25 17 9
18 18 19 20 21 21 22 23 23 23 24 26 25 25 27 27 25 23 23 22 23 19 20 17 13 10 6 6 15 20 24 21 22 22 23 24 26 28 24 21 22 21 20 27 25 20 11
20 20 21 22 22 23 23 23 24 25 26 26 26 26 27 27 26 23 22 21 23 18 16 15 8 7 7 9 10 18 25 25 26 25 27 30 30 34 32 32 25 21 30 26 29 23 17
20 21 21 22 23 24 24 25 26 27 28 29 29 28 27 27 27 24 21 21 21 13 19 14 11 9 8 10 8 13 18 22 26 34 34 32 36 44 39 35 37 20 22 32 29 28 22
23 24 24 25 25 25 25 26 28 29 30 32 32 29 27 27 26 25 23 19 17 13 11 14 14 11 8 7 4 8 15 15 26 29 31 34 44 38 37 35 35 36 20 29 30 26 25
24 24 25 26 27 27 27 28 29 29 30 31 31 28 26 26 24 22 21 20 14 13 12 11 15 18 10 3 4 5 11 15 20 26 30 34 25 42 38 39 39 40 39 30 29 17 25
27 27 28 28 29 29 29 28 28 28 28 30 31 29 25 24 21 19 18 17 14 12 8 7 9 13 12 1 6 10 5 11 14 20 27 26 36 17 24 44 41 42 43 37 28 17 10
30 30 30 30 30 29 28 27 26 28 29 29 30 29 26 22 19 17 15 15 12 9 3 5 8 13 16 10 9 10 11 9 12 15 20 23 22 33 25 23 40 42 37 39 38 32 26
31 32 33 33 31 30 28 28 27 27 28 28 28 28 24 21 19 17 16 14 10 1 4 5 7 11 16 16 16 18 17 16 14 15 21 27 30 27 21 37 28 33 11 21 34 30 23
34 37 36 35 33 30 29 27 28 28 28 26 27 24 21 19 17 16 18 12 5 6 4 5 9 16 18 21 22 22 24 22 17 14 16 22 30 37 29 15 32 25 29 6 10 12 15
34 37 38 39 33 30 28 27 28 29 28 27 24 20 19 18 13 16 15 10 8 6 7 11 14 17 15 18 20 22 20 18 17 16 15 14 13 31 34 41 25 39 37 15 8 5 15
39 38 38 40 32 30 28 28 29 29 31 28 20 17 18 17 12 15 15 5 5 7 7 11 16 12 9 21 17 13 11 5 9 10 5 9 13 23 28 43 35 31 46 40 18 10 9
40 37 40 31 29 29 30 31 30 30 27 23 17 15 18 14 12 16 16 12 12 13 13 13 11 8 12 15 10 10 6 4 7 10 16 10 18 28 27 33 47 41 31 35 31 9 5
34 35 33 27 29 30 32 33 31 26 24 22 19 19 13 13 16 18 20 16 16 17 17 13 12 14 14 10 9 10 6 9 9 12 18 25 21 28 24 32 45 46 40 34 40 26 9
36 33 26 29 28 29 30 29 29 27 24 22 20 17 11 17 11 7 10 14 15 14 14 15 15 13 11 9 9 10 11 12 13 17 19 21 15 19 34 33 31 42 39 41 29 30 34
27 22 27 28 29 28 27 27 28 29 28 24 20 15 18 15 7 17 12 15 18 16 14 10 9 10 9 12 8 8 9 15 18 18 13 15 12 11 14 37 34 23 47 34 44 30 40
26 23 26 27 27 27 26 26 26 27 26 25 24 18 20 10 20 15 18 13 10 12 12 14 13 12 12 14 13 10 14 14 21 21 19 18 21 27 17 13 8 24 26 45 41 30 30
22 24 26 27 28 26 26 25 26 25 26 26 25 23 21 19 15 13 12 11 11 16 19 20 17 16 18 21 21 23 22 21 21 19 21 17 27 29 33 36 30 23 21 32 42 42 29
23 25 27 27 27 26 25 25 26 26 26 25 23 22 22 16 13 11 12 17 14 13 20 25 27 24 21 29 21 24 20 22 24 20 25 24 24 20 32 29 33 24 12 17 28 44 34
25 26 27 26 27 27 26 25 26 27 25 24 26 26 24 18 16 13 17 19 19 17 20 12 20 17 17 18 18 22 23 27 28 24 25 27 23 11 15 14 17 17 19 12 20 32 38
25 26 26 27 28 28 28 26 26 25 24 22 24 24 23 18 14 15 20 18 16 15 19 20 15 16 11 15 21 27 30 33 30 28 31 31 21 14 14 5 11 15 16 22 22 24 32
24 25 26 28 29 28 26 25 24 23 22 23 22 19 18 16 12 16 18 14 16 18 16 12 6 11 17 21 32 15 10 14 28 30 30 30 26 12 6 5 20 21 21 19 22 12 21
23 23 25 29 28 26 24 23 22 21 22 22 20 15 13 14 16 17 14 19 22 21 15 6 11 13 13 21 22 7 6 7 8 10 28 31 28 24 7 7 5 10 16 21 29 14 11
22 22 25 28 26 23 22 22 22 20 19 18 20 13 16 12 14 14 19 21 13 16 15 17 6 14 14 20 14 6 4 6 9 8 16 19 20 32 28 7 5 6 20 27 8 10 15
23 24 24 25 23 21 19 20 20 19 17 21 24 15 22 17 16 13 17 18 15 18 15 15 10 18 21 19 10 10 9 16 20 10 8 3 2 2 5 2 5 8 28 16 17 17 15
26 25 23 21 19 18 17 19 20 22 21 22 25 23 22 28 24 22 16 12 15 13 19 11 13 18 17 20 20 14 17 19 23 8 15 11 7 1 5 9 15 25 30 28 23 18 18

GFSGBSN_700_spd_045.txt.gz
Wind_Speed
16 16 15 15 16 16 16 17 17 18 19 20 21 22 21 20 19 19 18 18 17 15 14 14 14 12 9 10 15 12 13 9 8 15 19 19 19 19 20 21 20 16 12 18 15 12 11
16 16 16 17 17 17 18 18 19 20 20 21 21 22 22 21 19 19 19 18 17 15 16 16 15 12 10 10 15 18 17 15 12 14 19 19 17 15 16 21 23 16 19 16 16 12 9
16 16 17 17 18 18 19 19 20 20 21 21 21 22 22 21 21 21 19 18 17 16 16 16 14 12 11 10 16 19 18 17 17 16 20 21 19 18 19 13 21 24 16 25 22 16 10
17 17 17 18 19 20 20 20 21 21 23 23 23 23 24 23 22 22 19 17 17 20 16 14 14 12 10 6 13 19 18 18 19 19 21 21 22 20 19 17 16 23 23 16 25 20 13
18 19 19 20 21 22 23 23 23 23 24 24 24 24 25 24 23 22 20 16 18 20 17 12 11 8 5 5 8 15 19 19 21 20 25 26 26 27 23 18 15 17 13 23 22 23 16
18 19 19 20 21 22 23 24 25 25 26 26 26 26 27 26 24 23 20 17 18 22 15 9 7 7 5 6 6 10 17 21 22 22 27 30 31 31 30 26 18 17 22 20 25 24 23
21 22 23 23 23 24 25 25 24 25 26 26 26 26 28 27 25 23 20 19 18 19 15 12 10 9 6 6 6 6 10 16 21 25 30 33 35 42 34 32 23 18 15 18 20 25 27
22 24 25 26 26 26 26 26 25 25 26 27 28 27 27 26 25 22 19 16 16 16 17 14 12 11 8 5 4 7 7 11 17 26 27 30 39 32 32 32 29 29 16 15 20 16 16
26 27 27 27 27 28 29 28 28 27 27 28 28 27 25 25 23 20 18 15 13 13 11 12 15 14 10 8 7 4 5 9 12 19 29 31 19 36 33 30 31 31 29 19 15 12 20
26 29 29 30 30 30 29 28 27 26 25 28 28 25 24 23 20 18 15 11 10 11 7 9 10 10 6 6 9 6 5 8 10 12 18 24 34 25 10 36 30 28 31 31 21 11 14
29 26 29 31 32 33 30 27 26 26 25 26 27 25 23 20 16 16 14 11 11 7 3 6 9 13 10 6 6 8 7 5 7 12 17 14 20 30 31 18 21 27 22 28 30 25 18
32 31 33 31 35 41 29 25 24 24 24 26 25 25 23 15 14 15 12 11 9 2 6 6 8 8 9 8 10 12 11 10 8 11 15 20 21 19 18 26 23 6 16 12 15 24 27
35 32 31 34 38 37 28 25 25 26 27 25 25 25 20 14 12 13 11 9 5 6 5 6 9 9 10 9 9 10 10 8 4 5 10 14 22 23 22 16 16 23 14 9 10 11 18
34 32 30 34 34 28 25 26 27 28 27 25 23 19 15 12 15 15 9 7 7 7 9 10 9 11 10 7 8 11 12 7 5 2 6 7 11 17 21 27 21 23 28 14 13 10 15
30 31 31 32 28 27 27 28 28 27 24 20 17 16 14 14 14 10 10 5 6 9 11 13 13 12 8 7 9 10 10 7 1 2 1 2 10 16 15 29 26 27 34 33 20 9 14
32 28 27 25 27 28 28 27 24 24 24 22 18 16 15 12 8 11 13 11 11 12 14 15 11 8 5 9 10 8 5 6 3 2 3 5 12 12 23 20 30 36 26 27 28 18 19
33 26 25 25 27 29 28 27 25 25 24 21 18 15 10 10 12 13 13 15 16 17 17 13 12 12 14 12 12 8 6 8 9 5 6 8 8 10 18 14 17 29 28 29 30 35 11
25 22 23 25 27 28 27 25 23 24 24 21 18 11 12 13 8 5 8 10 12 13 16 16 16 16 17 14 12 9 11 9 7 9 11 12 11 16 23 29 28 18 27 41 32 32 40
20 22 24 26 27 27 26 25 24 26 26 25 21 12 15 8 8 12 9 10 12 15 15 13 13 12 11 14 9 12 12 13 10 11 7 9 7 8 18 18 27 33 31 37 41 40 38
23 24 26 27 27 27 27 26 25 25 26 24 22 17 17 9 14 14 13 8 4 9 15 16 17 16 15 18 17 11 14 10 10 10 15 14 18 13 20 22 10 17 18 26 31 45 39
24 26 27 27 27 28 28 26 25 25 24 22 20 18 17 10 11 9 9 9 9 9 10 14 20 23 26 16 21 23 23 17 18 16 15 16 21 14 20 28 34 36 36 30 25 34 38
26 26 27 28 28 28 27 26 24 23 21 21 20 18 16 10 11 7 12 15 13 16 15 17 16 18 23 23 25 19 21 16 20 12 18 22 18 16 26 31 32 38 43 38 31 38 33
26 25 26 28 29 28 27 25 23 21 21 24 24 22 17 14 12 14 17 17 16 14 15 17 16 19 16 18 21 20 21 22 22 20 21 26 27 18 31 23 24 33 46 36 26 26 37
24 24 25 29 29 26 25 23 21 20 22 23 23 19 15 12 13 16 13 13 17 13 16 14 7 6 5 9 15 20 25 26 29 32 27 28 27 22 30 25 11 19 23 31 18 21 38
23 23 24 27 27 24 23 21 21 21 22 23 20 18 15 15 15 16 15 18 16 12 14 8 7 12 14 17 18 21 21 18 28 34 37 31 29 22 12 13 22 19 23 35 22 18 33
24 24 25 25 24 22 20 21 23 21 23 23 19 21 19 17 17 15 16 16 17 18 14 17 8 14 14 15 15 8 6 9 3 4 25 32 31 28 17 10 5 19 30 35 28 11 25
27 26 22 22 20 18 18 23 24 24 22 25 24 23 25 19 20 14 17 17 13 17 20 16 11 16 22 21 11 6 5 7 7 12 18 26 25 33 31 17 19 8 24 30 9 13 17
27 27 21 20 17 15 15 20 24 24 25 24 22 21 23 21 25 23 14 8 14 15 17 16 10 24 22 19 9 10 8 12 7 9 12 19 15 22 22 12 13 7 28 18 20 22 23
26 25 21 19 15 14 12 16 21 21 25 25 22 20 22 28 27 28 24 19 11 8 12 13 14 14 15 17 15 12 12 13 24 7 9 1 3 4 3 1 6 23 32 33 28 24 25

GFSGBSN_700_spd_048.txt.gz
Wind_Speed
11 12 13 13 14 15 15 16 16 16 17 18 19 19 18 17 15 15 14 13 12 11 11 10 10 10 8 11 18 12 14 11 13 16 17 18 18 18 17 17 14 17 7 10 14 13 8
13 13 13 13 14 14 16 16 17 17 17 18 19 19 19 17 16 15 14 13 12 11 11 11 10 10 7 12 15 19 17 15 11 15 18 20 18 16 14 12 17 9 16 14 17 10 9
14 14 14 15 15 16 17 17 18 18 19 19 19 19 20 19 17 15 15 13 12 12 14 11 10 10 8 11 12 20 22 19 16 17 20 21 20 19 11 10 15 16 8 15 20 15 11
16 16 17 17 18 18 19 19 19 19 20 20 20 21 20 19 18 16 15 14 12 11 13 13 10 9 10 6 7 15 19 19 20 22 24 25 20 19 13 14 9 17 16 16 17 18 13
16 17 18 18 19 19 20 20 21 21 21 21 21 22 21 21 20 17 15 14 12 11 13 13 10 7 8 6 4 8 15 17 20 22 27 27 24 17 18 12 13 16 18 21 15 18 15
21 21 21 21 21 21 22 22 22 23 23 23 22 22 23 21 19 17 15 14 13 11 11 8 8 6 7 6 5 7 10 16 19 19 24 26 24 19 19 21 22 20 23 18 22 17 21
20 21 22 23 23 23 24 24 24 23 23 23 23 22 24 22 20 17 14 13 13 13 12 9 10 12 14 10 6 4 7 12 19 21 23 24 26 30 22 23 20 13 17 22 16 15 19
23 25 27 26 26 26 27 27 27 26 26 25 25 23 24 24 21 18 14 13 13 13 14 14 13 12 12 11 6 6 7 7 15 19 20 19 30 24 20 20 22 21 15 16 16 14 17
24 25 24 24 28 28 28 30 29 26 26 25 25 23 23 21 20 16 14 12 11 11 9 14 14 15 13 11 11 9 9 11 12 18 24 24 13 25 23 21 23 23 24 19 14 10 16
28 27 29 29 30 30 31 31 26 24 24 24 24 22 23 20 18 14 11 9 9 8 4 8 8 11 10 11 11 13 11 11 10 15 17 24 23 11 26 23 22 23 21 20 21 17 19
29 29 27 29 30 29 29 27 22 20 20 23 24 22 20 18 17 12 9 7 6 3 5 5 6 11 7 5 9 10 11 9 9 10 15 15 20 28 24 16 26 23 17 20 20 23 22
30 28 27 26 26 30 25 21 22 22 23 24 23 20 18 16 12 10 9 7 4 3 4 3 4 3 1 4 10 12 10 11 11 13 14 17 14 16 26 26 16 12 21 18 16 21 26
29 29 29 24 24 24 24 24 24 23 22 21 18 15 12 8 8 9 9 5 3 9 5 3 3 2 3 4 6 8 6 5 9 11 16 14 20 16 14 18 25 23 15 15 15 18 21
32 27 25 23 22 23 24 24 23 22 22 20 18 14 11 7 7 10 8 1 8 3 4 5 2 3 5 4 6 4 4 6 10 12 10 15 16 17 20 23 21 30 32 20 20 14 22
29 24 21 21 23 24 25 23 22 22 21 20 18 15 12 9 11 9 2 7 6 6 6 5 7 9 10 7 6 4 5 8 7 9 9 12 16 14 18 26 22 26 36 37 30 22 19
21 20 22 23 24 25 23 22 20 20 21 20 16 11 8 7 5 4 5 9 6 8 7 7 9 8 9 8 6 5 7 7 7 10 12 7 10 11 12 24 30 29 28 28 36 23 23
21 22 23 25 26 25 23 21 21 20 21 19 15 9 6 7 7 3 7 8 10 8 9 8 9 13 11 12 11 11 7 7 8 7 8 6 7 9 10 18 21 26 33 25 27 35 18
23 24 25 26 26 25 24 24 23 22 20 16 11 2 11 8 2 2 4 11 13 6 7 9 10 13 15 14 14 14 14 11 9 8 4 7 7 13 16 18 19 15 17 30 36 32 39
24 25 25 26 27 27 27 26 23 22 20 16 12 6 8 2 2 3 5 4 7 5 6 6 8 9 11 13 12 13 14 12 11 9 6 7 7 9 12 16 19 20 29 24 26 34 35
24 24 24 27 29 28 27 25 22 21 19 17 14 5 11 4 6 5 3 4 4 6 5 6 11 13 14 16 16 11 13 12 12 13 17 9 14 16 18 15 6 10 16 20 26 34 36
23 23 24 28 29 28 27 25 22 20 20 18 16 10 8 4 8 9 9 8 7 5 3 7 6 10 14 16 18 22 19 14 15 16 16 13 16 16 22 21 21 23 25 26 27 28 34
22 22 24 28 29 27 27 24 20 21 22 21 16 9 6 7 8 8 5 6 7 10 12 9 10 12 14 20 17 12 20 21 20 18 21 21 22 15 23 22 24 30 32 36 36 36 36
23 24 24 26 27 25 24 20 19 23 22 21 18 15 11 12 14 10 8 9 11 12 11 12 13 14 16 17 19 23 25 26 23 18 22 24 20 18 25 23 26 33 33 38 43 41 40
24 24 24 24 24 21 20 19 18 23 21 20 20 18 18 15 13 11 8 11 9 11 12 11 8 9 11 12 16 17 20 22 24 26 27 23 23 21 25 22 19 37 33 36 42 46 44
26 26 21 21 20 18 18 20 18 22 21 21 22 21 24 20 12 13 11 7 13 11 9 12 10 11 15 14 14 15 14 19 28 32 34 34 26 17 21 21 26 34 29 25 42 46 42
27 26 21 19 17 14 16 19 22 21 21 20 19 23 23 23 18 10 9 9 12 14 11 11 12 9 11 10 10 6 5 8 6 6 18 33 31 28 18 14 15 23 22 9 24 40 34
26 26 21 18 15 11 15 19 23 23 21 18 20 19 25 25 23 19 15 12 12 14 14 15 12 17 17 13 9 6 6 10 5 8 9 29 31 31 30 25 26 38 45 31 14 27 35
23 25 20 15 14 8 9 14 19 22 23 20 17 19 22 25 27 23 22 19 17 17 15 13 9 16 14 12 6 8 8 9 6 5 13 17 14 18 23 20 21 35 27 8 7 19 32
20 23 18 14 10 10 8 8 11 17 22 23 18 16 17 21 22 24 21 20 19 19 17 19 15 13 13 13 10 8 10 12 15 5 6 10 22 11 19 14 26 11 6 9 19 27 36